Weather History for Danville, VA

Change the Weather History Date:

Wednesday, September 18, 2013

  Actual Average Record
Temperature  
Mean Temperature 60 °F 69 °F  
Max Temperature 73 °F 79 °F 97 °F (1954)
Min Temperature 47 °F 59 °F 46 °F (1966)
Degree Days  
Heating Degree Days 5 1  
Month to date heating degree days 8 5  
Since 1 July heating degree days 8 5  
Cooling Degree Days 0 5  
Month to date cooling degree days 141 133  
Year to date cooling degree days 1349 1360  
Growing Degree Days 10 (Base 50)    
Moisture  
Dew Point 50 °F    
Average Humidity 69    
Maximum Humidity 93    
Minimum Humidity 44    
Precipitation  
Precipitation 0.00 in 0.14 in 1.79 in (2003)
Month to date precipitation 0.24 2.42  
Year to date precipitation 41.55 32.71  
Snow  
Snow 0.00 in - - ()
Month to date snowfall 0.0  
Since 1 July snowfall 0.0  
Since 1 September snowfall 0.0  
Snow Depth 0.00 in    
Sea Level Pressure  
Sea Level Pressure 30.26 in    
Wind  
Wind Speed 2 mph (NE)    
Max Wind Speed 9 mph    
Max Gust Speed 14 mph    
Visibility 10 miles    
Events      
T = Trace of Precipitation, MM = Missing Value Source: NWS Daily Summary

Daily Weather History Graph

Daily Weather History Graph

Search for Another Location

Airport:

Trip Planner

Search our weather history database for the weather conditions in past years. The results will help you decide how hot, cold, wet, or windy it might be!

Date:

Astronomy

Sep. 18, 2013 Rise Set
Actual Time 7:02 AM EDT 7:19 PM EDT
Civil Twilight 6:36 AM EDT 7:45 PM EDT
Nautical Twilight 6:06 AM EDT 8:15 PM EDT
Astronomical Twilight 5:35 AM EDT 8:46 PM EDT
Moon 6:42 PM EDT (9/18) 6:03 AM EDT (9/18)
Length of Visible Light 13h 09m
Length of Day
12h 17m
Waxing Gibbous, 99% of the Moon is Illuminated
Sep 18
Waxing Gibbous
Sep 19
Full
Sep 26
Last Quarter
Oct 4
New
Oct 11
First Quarter

Hourly Weather History & Observations

Time (EDT) Temp. Dew Point Humidity Pressure Visibility Wind Dir Wind Speed Gust Speed Precip Events Conditions
12:53 AM 53.1 °F 48.9 °F 86% 30.30 in 10.0 mi Calm Calm - N/A   Clear
1:53 AM 51.1 °F 46.9 °F 86% 30.30 in 10.0 mi Calm Calm - N/A   Clear
2:53 AM 50.0 °F 46.9 °F 89% 30.30 in 10.0 mi Calm Calm - N/A   Clear
3:53 AM 50.0 °F 46.9 °F 89% 30.29 in 10.0 mi Calm Calm - N/A   Clear
4:53 AM 48.9 °F 46.0 °F 90% 30.30 in 10.0 mi Calm Calm - N/A   Clear
5:53 AM 48.0 °F 46.0 °F 93% 30.30 in 10.0 mi Calm Calm - N/A   Clear
6:53 AM 48.0 °F 45.0 °F 89% 30.30 in 10.0 mi East 6.9 mph - N/A   Clear
7:53 AM 52.0 °F 48.0 °F 86% 30.32 in 10.0 mi NNW 3.5 mph - N/A   Clear
8:53 AM 55.9 °F 50.0 °F 80% 30.32 in 10.0 mi NNW 3.5 mph - N/A   Clear
9:53 AM 60.1 °F 50.0 °F 69% 30.33 in 10.0 mi Calm Calm - N/A   Scattered Clouds
10:14 AM 62.6 °F 51.8 °F 68% 30.35 in 10.0 mi Calm Calm - N/A   Mostly Cloudy
10:32 AM 62.6 °F 50.0 °F 63% 30.34 in 10.0 mi Calm Calm - N/A   Scattered Clouds
10:53 AM 64.0 °F 48.0 °F 56% 30.32 in 10.0 mi East 4.6 mph - N/A   Clear
11:53 AM 66.0 °F 46.0 °F 48% 30.30 in 10.0 mi Calm Calm - N/A   Clear
12:53 PM 68.0 °F 48.0 °F 49% 30.28 in 10.0 mi Variable 4.6 mph - N/A   Clear
1:53 PM 71.1 °F 48.9 °F 45% 30.25 in 10.0 mi WSW 4.6 mph - N/A   Clear
2:53 PM 71.1 °F 48.9 °F 45% 30.22 in 10.0 mi Calm Calm - N/A   Clear
3:53 PM 72.0 °F 50.0 °F 46% 30.21 in 10.0 mi NE 6.9 mph - N/A   Clear
4:53 PM 72.0 °F 50.0 °F 46% 30.19 in 10.0 mi East 4.6 mph - N/A   Clear
5:53 PM 71.1 °F 48.9 °F 45% 30.19 in 10.0 mi Calm Calm - N/A   Clear
6:53 PM 64.0 °F 55.9 °F 75% 30.19 in 10.0 mi Calm Calm - N/A   Clear
7:53 PM 59.0 °F 54.0 °F 83% 30.19 in 10.0 mi Calm Calm - N/A   Clear
8:53 PM 57.9 °F 53.1 °F 84% 30.19 in 10.0 mi Calm Calm - N/A   Clear
9:53 PM 57.9 °F 54.0 °F 87% 30.20 in 10.0 mi Calm Calm - N/A   Partly Cloudy
10:53 PM 57.0 °F 54.0 °F 89% 30.20 in 10.0 mi Calm Calm - N/A   Partly Cloudy
11:53 PM 57.0 °F 54.0 °F 89% 30.19 in 10.0 mi Calm Calm - N/A   Mostly Cloudy